Hourly Weather Kistochkivka

Today, 27 July, Tuesday

Time Temperature Precipitation Wind Pressure Humidity
00:00 +26°C° 0 mm 3 mps 757 mmHg 64%
01:00 +26°C° 0 mm 3 mps 757 mmHg 65%
02:00 +26°C° 0 mm 3 mps 757 mmHg 66%
03:00 +26°C° 0 mm 2 mps 757 mmHg 68%
04:00 +25°C° 0 mm 2 mps 758 mmHg 69%
05:00 +25°C° 0 mm 2 mps 758 mmHg 71%
06:00 +27°C° 0 mm 2 mps 758 mmHg 65%
07:00 +29°C° 0 mm 3 mps 758 mmHg 59%
08:00 +30°C° 0 mm 3 mps 758 mmHg 53%
09:00 +33°C° 0 mm 4 mps 758 mmHg 47%
10:00 +34°C° 0 mm 4 mps 758 mmHg 41%
11:00 +35°C° 0 mm 5 mps 758 mmHg 34%
12:00 +35°C° 0 mm 5 mps 758 mmHg 33%
13:00 +35°C° 0 mm 5 mps 758 mmHg 32%
14:00 +35°C° 0 mm 5 mps 758 mmHg 31%
15:00 +35°C° 0 mm 4 mps 758 mmHg 32%
16:00 +34°C° 0 mm 4 mps 758 mmHg 33%
17:00 +34°C° 0 mm 4 mps 758 mmHg 35%
18:00 +31°C° 0 mm 3 mps 758 mmHg 42%
19:00 +29°C° 0 mm 3 mps 758 mmHg 49%
20:00 +26°C° 0 mm 2 mps 758 mmHg 57%
21:00 +26°C° 0 mm 2 mps 758 mmHg 58%
22:00 +26°C° 0 mm 2 mps 759 mmHg 59%
23:00 +25°C° 0 mm 2 mps 759 mmHg 61%

Tomorrow, 28 July, Wednesday

Time Temperature Precipitation Wind Pressure Humidity
00:00 +25°C° 0 mm 2 mps 758 mmHg 62%
01:00 +24°C° 0 mm 2 mps 758 mmHg 62%
02:00 +24°C° 0 mm 2 mps 758 mmHg 63%
03:00 +24°C° 0 mm 2 mps 758 mmHg 64%
04:00 +24°C° 0 mm 2 mps 758 mmHg 64%
05:00 +24°C° 0 mm 2 mps 758 mmHg 65%
06:00 +26°C° 0 mm 2 mps 758 mmHg 59%
07:00 +28°C° 0 mm 2 mps 758 mmHg 53%
08:00 +30°C° 0 mm 2 mps 758 mmHg 46%
09:00 +31°C° 0 mm 2 mps 758 mmHg 42%
10:00 +32°C° 0 mm 2 mps 758 mmHg 39%
11:00 +34°C° 0 mm 2 mps 758 mmHg 35%
12:00 +35°C° 0 mm 3 mps 757 mmHg 34%
13:00 +35°C° 0 mm 3 mps 757 mmHg 33%
14:00 +35°C° 0 mm 4 mps 757 mmHg 33%
15:00 +34°C° 0 mm 4 mps 757 mmHg 35%
16:00 +34°C° 0 mm 3 mps 757 mmHg 38%
17:00 +33°C° 0 mm 3 mps 756 mmHg 41%
18:00 +30°C° 0 mm 3 mps 757 mmHg 46%
19:00 +28°C° 0 mm 3 mps 757 mmHg 52%
20:00 +26°C° 0 mm 2 mps 757 mmHg 57%
21:00 +26°C° 0 mm 2 mps 757 mmHg 59%
22:00 +25°C° 0 mm 3 mps 757 mmHg 62%
23:00 +25°C° 0 mm 3 mps 757 mmHg 64%

Day after tomorrow, 29 July, Thursday

Time Temperature Precipitation Wind Pressure Humidity
00:00 +24°C° 0 mm 3 mps 757 mmHg 64%
01:00 +24°C° 0 mm 2 mps 757 mmHg 65%
02:00 +24°C° 0 mm 2 mps 756 mmHg 65%
03:00 +24°C° 0 mm 2 mps 756 mmHg 65%
04:00 +24°C° 0 mm 2 mps 756 mmHg 65%
05:00 +24°C° 0 mm 2 mps 756 mmHg 65%
06:00 +26°C° 0 mm 1 mps 756 mmHg 58%
07:00 +28°C° 0 mm 1 mps 756 mmHg 50%
08:00 +31°C° 0 mm 1 mps 756 mmHg 42%
09:00 +32°C° 0 mm 1 mps 755 mmHg 39%
10:00 +34°C° 0 mm 2 mps 755 mmHg 35%
11:00 +36°C° 0 mm 2 mps 755 mmHg 32%
12:00 +36°C° 0 mm 3 mps 755 mmHg 31%
13:00 +37°C° 0 mm 3 mps 755 mmHg 31%
14:00 +37°C° 0 mm 3 mps 755 mmHg 30%
15:00 +36°C° 0 mm 3 mps 754 mmHg 32%
16:00 +35°C° 0 mm 3 mps 754 mmHg 34%
17:00 +35°C° 0 mm 3 mps 754 mmHg 37%
18:00 +31°C° 0 mm 3 mps 754 mmHg 43%
19:00 +29°C° 0 mm 2 mps 754 mmHg 48%
20:00 +27°C° 0 mm 1 mps 754 mmHg 54%
21:00 +27°C° 0 mm 2 mps 754 mmHg 55%
22:00 +26°C° 0 mm 2 mps 754 mmHg 56%
23:00 +26°C° 0 mm 2 mps 754 mmHg 57%

30 July, Friday

Time Temperature Precipitation Wind Pressure Humidity
00:00 +25°C° 0 mm 2 mps 754 mmHg 57%
01:00 +25°C° 0 mm 2 mps 754 mmHg 57%
02:00 +25°C° 0 mm 2 mps 754 mmHg 57%
03:00 +25°C° 0 mm 2 mps 754 mmHg 57%
04:00 +25°C° 0 mm 2 mps 754 mmHg 56%
05:00 +24°C° 0 mm 2 mps 754 mmHg 55%
06:00 +27°C° 0 mm 2 mps 754 mmHg 49%
07:00 +29°C° 0 mm 2 mps 754 mmHg 43%
08:00 +31°C° 0 mm 2 mps 754 mmHg 38%
09:00 +34°C° 0 mm 2 mps 754 mmHg 35%
10:00 +35°C° 0 mm 2 mps 753 mmHg 32%
11:00 +36°C° 0 mm 2 mps 753 mmHg 30%
12:00 +37°C° 0 mm 3 mps 753 mmHg 30%
13:00 +37°C° 0 mm 3 mps 753 mmHg 30%
14:00 +37°C° 0 mm 3 mps 753 mmHg 31%
15:00 +37°C° 0.1 mm 3 mps 752 mmHg 33%
16:00 +36°C° 0.1 mm 3 mps 752 mmHg 36%
17:00 +35°C° 0.1 mm 3 mps 752 mmHg 38%
18:00 +33°C° 0.1 mm 3 mps 752 mmHg 46%
19:00 +30°C° 0.1 mm 3 mps 752 mmHg 53%
20:00 +28°C° 0.1 mm 3 mps 753 mmHg 60%
21:00 +27°C° 0.1 mm 3 mps 753 mmHg 64%
22:00 +26°C° 0.1 mm 2 mps 753 mmHg 68%
23:00 +26°C° 0.1 mm 2 mps 753 mmHg 71%

31 July, Saturday

Time Temperature Precipitation Wind Pressure Humidity
00:00 +26°C° 0 mm 2 mps 753 mmHg 71%
01:00 +25°C° 0 mm 2 mps 753 mmHg 72%
02:00 +25°C° 0 mm 2 mps 752 mmHg 72%
03:00 +25°C° 0 mm 2 mps 752 mmHg 72%
04:00 +25°C° 0 mm 2 mps 752 mmHg 73%
05:00 +25°C° 0 mm 1 mps 752 mmHg 74%
06:00 +27°C° 0 mm 1 mps 752 mmHg 67%
07:00 +29°C° 0 mm 1 mps 752 mmHg 60%
08:00 +31°C° 0 mm 1 mps 752 mmHg 54%
09:00 +33°C° 0 mm 1 mps 752 mmHg 48%
10:00 +35°C° 0 mm 2 mps 752 mmHg 43%
11:00 +37°C° 0 mm 2 mps 752 mmHg 38%
12:00 +37°C° 0 mm 2 mps 752 mmHg 38%
13:00 +37°C° 0 mm 3 mps 752 mmHg 38%
14:00 +37°C° 0 mm 4 mps 751 mmHg 38%
15:00 +36°C° 0.2 mm 3 mps 751 mmHg 42%
16:00 +35°C° 0.2 mm 3 mps 752 mmHg 45%
17:00 +34°C° 0.2 mm 2 mps 752 mmHg 48%
18:00 +31°C° 0.9 mm 2 mps 752 mmHg 56%
19:00 +29°C° 0.9 mm 2 mps 752 mmHg 64%
20:00 +27°C° 0.9 mm 2 mps 753 mmHg 72%
21:00 +26°C° 0 mm 2 mps 753 mmHg 71%
22:00 +26°C° 0 mm 2 mps 753 mmHg 70%
23:00 +26°C° 0 mm 3 mps 753 mmHg 69%

1 August, Sunday

Time Temperature Precipitation Wind Pressure Humidity
00:00 +26°C° 0 mm 3 mps 753 mmHg 69%
01:00 +25°C° 0 mm 2 mps 753 mmHg 69%
02:00 +25°C° 0 mm 2 mps 753 mmHg 69%
03:00 +25°C° 0 mm 2 mps 753 mmHg 69%
04:00 +25°C° 0 mm 2 mps 753 mmHg 68%
05:00 +25°C° 0 mm 2 mps 753 mmHg 68%
06:00 +27°C° 0 mm 2 mps 753 mmHg 61%
07:00 +29°C° 0 mm 2 mps 753 mmHg 54%
08:00 +31°C° 0 mm 2 mps 753 mmHg 48%
09:00 +32°C° 0 mm 2 mps 753 mmHg 44%
10:00 +35°C° 0 mm 2 mps 753 mmHg 40%
11:00 +36°C° 0 mm 2 mps 753 mmHg 36%
12:00 +37°C° 0 mm 3 mps 753 mmHg 34%
13:00 +37°C° 0 mm 3 mps 752 mmHg 32%
14:00 +38°C° 0 mm 4 mps 752 mmHg 30%
15:00 +37°C° 0 mm 4 mps 752 mmHg 32%
16:00 +36°C° 0 mm 3 mps 752 mmHg 34%
17:00 +35°C° 0 mm 3 mps 752 mmHg 37%
18:00 +32°C° 0 mm 2 mps 752 mmHg 44%
19:00 +30°C° 0 mm 2 mps 753 mmHg 51%
20:00 +28°C° 0 mm 1 mps 753 mmHg 58%
21:00 +28°C° 0 mm 1 mps 753 mmHg 59%
22:00 +27°C° 0 mm 1 mps 753 mmHg 60%
23:00 +27°C° 0 mm 1 mps 753 mmHg 60%
Show more